Weather History for KVTP - July, 2014

Change the Weather History Date:

Friday, July 4, 2014

  Actual Average (KTAD) Record (KTAD)
Temperature  
Mean Temperature 61 °F 73 °F  
Max Temperature 78 °F 89 °F 101 °F (1980)
Min Temperature 44 °F 58 °F 47 °F (1993)
Degree Days  
Heating Degree Days 4 0  
Month to date heating degree days 0  
Since 1 June heating degree days 39  
Since 1 July heating degree days 0  
Cooling Degree Days 0 8  
Month to date cooling degree days 32  
Year to date cooling degree days 201  
Since 1 June cooling degree days 173  
Growing Degree Days 11 (Base 50)    
Moisture  
Dew Point 39 °F    
Average Humidity 55    
Maximum Humidity 76    
Minimum Humidity 21    
Precipitation  
Precipitation 0.00 in 0.06 in 1.37 in (1990)
Month to date precipitation 0.23  
Year to date precipitation 6.16  
Sea Level Pressure  
Sea Level Pressure 30.57 in    
Wind  
Wind Speed 8 mph (SW)    
Max Wind Speed 17 mph    
Max Gust Speed 32 mph    
Visibility 10 miles    
Events Thunderstorm    
T = Trace of Precipitation, MM = Missing Value Source: NWS Daily Summary

Daily Weather History Graph

Daily Weather History Graph

Search for Another Location

Airport or City:

Trip Planner

Search our weather history database for the weather conditions in past years. The results will help you decide how hot, cold, wet, or windy it might be!

Date:

Astronomy

Jul. 04, 2014 Rise Set
Actual Time 5:44 AM MDT 8:25 PM MDT
Civil Twilight 5:13 AM MDT 8:56 PM MDT
Nautical Twilight 4:35 AM MDT 9:34 PM MDT
Astronomical Twilight 3:52 AM MDT 10:17 PM MDT
Moon 12:34 PM MDT (7/4) No Moon Set
Length of Visible Light 15h 42m
Length of Day
14h 40m
Waxing Crescent, 43% of the Moon is Illuminated
Jul 4
Waxing Crescent
Jul 5
First Quarter
Jul 12
Full
Jul 18
Last Quarter
Jul 26
New

Hourly Weather History & Observations

Time (MDT) Temp. Windchill Dew Point Humidity Pressure Visibility Wind Dir Wind Speed Gust Speed Precip Events Conditions
12:13 AM 53.6 °F - 35.6 °F 51% 30.60 in 10.0 mi West 3.5 mph - N/A   Clear
12:33 AM 53.6 °F - 35.6 °F 51% 30.59 in 10.0 mi Calm Calm - N/A   Clear
12:53 AM 53.6 °F - 35.6 °F 51% 30.58 in 10.0 mi WSW 4.6 mph - N/A   Clear
1:12 AM 51.8 °F - 35.6 °F 54% 30.58 in 10.0 mi SW 10.4 mph 16.1 mph N/A   Clear
1:33 AM 51.8 °F - 37.4 °F 58% 30.57 in 10.0 mi SW 12.7 mph 20.7 mph N/A   Clear
1:52 AM 50.0 °F - 35.6 °F 58% 30.56 in 10.0 mi SW 15.0 mph 25.3 mph N/A   Scattered Clouds
2:12 AM 50.0 °F - 35.6 °F 58% 30.56 in 10.0 mi SW 12.7 mph 24.2 mph N/A   Scattered Clouds
2:33 AM 48.2 °F - 35.6 °F 62% 30.56 in 10.0 mi SW 5.8 mph - N/A   Scattered Clouds
2:52 AM 46.4 °F 42.9 °F 37.4 °F 71% 30.56 in 10.0 mi WSW 6.9 mph - N/A   Mostly Cloudy
3:13 AM 46.4 °F 42.9 °F 37.4 °F 71% 30.56 in 10.0 mi WSW 6.9 mph - N/A   Mostly Cloudy
3:32 AM 44.6 °F 40.2 °F 37.4 °F 76% 30.55 in 10.0 mi SW 8.1 mph - N/A   Mostly Cloudy
3:53 AM 46.4 °F 39.5 °F 37.4 °F 71% 30.54 in 10.0 mi SW 17.3 mph 24.2 mph N/A   Mostly Cloudy
4:13 AM 46.4 °F 40.4 °F 37.4 °F 71% 30.53 in 10.0 mi SW 13.8 mph 26.5 mph N/A   Scattered Clouds
4:33 AM 46.4 °F 39.8 °F 37.4 °F 71% 30.54 in 10.0 mi SW 16.1 mph 24.2 mph N/A   Clear
4:52 AM 46.4 °F 39.8 °F 37.4 °F 71% 30.54 in 10.0 mi SW 16.1 mph 26.5 mph N/A   Clear
5:12 AM 46.4 °F 40.1 °F 37.4 °F 71% 30.54 in 10.0 mi SW 15.0 mph 28.8 mph N/A   Clear
5:33 AM 46.4 °F 41.1 °F 35.6 °F 66% 30.54 in 10.0 mi SW 11.5 mph 26.5 mph N/A   Clear
5:53 AM 44.6 °F 39.2 °F 37.4 °F 76% 30.54 in 10.0 mi SW 10.4 mph 19.6 mph N/A   Clear
6:11 AM 44.6 °F 39.7 °F 37.4 °F 76% 30.54 in 10.0 mi SW 9.2 mph 19.6 mph N/A   Clear
6:33 AM 44.6 °F 40.2 °F 37.4 °F 76% 30.55 in 10.0 mi SW 8.1 mph 16.1 mph N/A   Clear
6:53 AM 44.6 °F 39.7 °F 37.4 °F 76% 30.56 in 10.0 mi WSW 9.2 mph 18.4 mph N/A   Clear
7:13 AM 46.4 °F 41.9 °F 37.4 °F 71% 30.56 in 10.0 mi WSW 9.2 mph - N/A   Clear
7:33 AM 48.2 °F - 37.4 °F 66% 30.56 in 10.0 mi SW 10.4 mph 19.6 mph N/A   Clear
7:53 AM 48.2 °F - 37.4 °F 66% 30.56 in 10.0 mi WSW 8.1 mph - N/A   Clear
8:13 AM 50.0 °F - 39.2 °F 66% 30.58 in 10.0 mi West 6.9 mph - N/A   Clear
8:32 AM 51.8 °F - 41.0 °F 67% 30.58 in 10.0 mi WSW 8.1 mph - N/A   Clear
8:52 AM 53.6 °F - 42.8 °F 67% 30.58 in 10.0 mi WSW 6.9 mph - N/A   Clear
9:13 AM 53.6 °F - 41.0 °F 62% 30.58 in 10.0 mi West 9.2 mph - N/A   Clear
9:30 AM 55.4 °F - 41.0 °F 58% 30.58 in 10.0 mi WSW 9.2 mph - N/A   Clear
9:51 AM 57.2 °F - 42.8 °F 59% 30.58 in 10.0 mi WSW 9.2 mph - N/A   Clear
10:09 AM 59.0 °F - 42.8 °F 55% 30.58 in 10.0 mi SW 9.2 mph 17.3 mph N/A   Clear
10:28 AM 59.0 °F - 41.0 °F 51% 30.58 in 10.0 mi SW 8.1 mph 17.3 mph N/A   Clear
10:52 AM 62.6 °F - 41.0 °F 45% 30.59 in 10.0 mi WSW 6.9 mph - N/A Thunderstorm Clear
11:13 AM 64.4 °F - 41.0 °F 42% 30.59 in 10.0 mi WSW 5.8 mph - N/A   Clear
11:25 AM 66.2 °F - 42.8 °F 43% 30.59 in 10.0 mi WSW 5.8 mph - N/A   Clear
11:53 AM 68.0 °F - 41.0 °F 37% 30.58 in 10.0 mi WSW 5.8 mph - N/A   Clear
12:10 PM 68.0 °F - 41.0 °F 37% 30.58 in 10.0 mi West 5.8 mph - N/A   Clear
12:33 PM 69.8 °F - 39.2 °F 33% 30.58 in 10.0 mi West 4.6 mph - N/A   Clear
12:50 PM 69.8 °F - 37.4 °F 31% 30.58 in 10.0 mi Calm Calm - N/A   Clear
1:12 PM 71.6 °F - 37.4 °F 29% 30.56 in 10.0 mi Calm Calm - N/A   Clear
1:32 PM 71.6 °F - 35.6 °F 27% 30.56 in 10.0 mi WNW 3.5 mph - N/A   Clear
1:44 PM 73.4 °F - 37.4 °F 27% 30.56 in 10.0 mi West 3.5 mph - N/A   Clear
2:28 PM 75.2 °F - 35.6 °F 24% 30.54 in 10.0 mi SW 4.6 mph - N/A   Clear
2:46 PM 78.8 °F - 35.6 °F 21% 30.54 in 10.0 mi Calm Calm - N/A   Scattered Clouds
3:08 PM 69.8 °F - 35.6 °F 28% 30.54 in 10.0 mi ENE 13.8 mph 20.7 mph N/A Thunderstorm Thunderstorm
3:17 PM 66.2 °F - 35.6 °F 32% 30.54 in 10.0 mi ENE 15.0 mph 24.2 mph N/A   Overcast
3:48 PM 68.0 °F - 37.4 °F 33% 30.54 in 10.0 mi ENE 11.5 mph 23.0 mph N/A   Scattered Clouds
4:10 PM 68.0 °F - 39.2 °F 35% 30.54 in 10.0 mi ENE 9.2 mph 18.4 mph N/A Thunderstorm Clear
4:33 PM 64.4 °F - 41.0 °F 42% 30.54 in 10.0 mi East 6.9 mph - N/A   Clear
4:53 PM 62.6 °F - 39.2 °F 42% 30.54 in 10.0 mi East 9.2 mph - N/A   Scattered Clouds
5:13 PM 64.4 °F - 41.0 °F 42% 30.53 in 10.0 mi East 6.9 mph - N/A   Mostly Cloudy
5:14 PM 64.4 °F - 41.0 °F 42% 30.53 in 10.0 mi East 5.8 mph - N/A   Mostly Cloudy
5:44 PM 60.8 °F - 42.8 °F 52% 30.54 in 10.0 mi North 5.8 mph - N/A Thunderstorm Mostly Cloudy
6:12 PM 53.6 °F - 42.8 °F 67% 30.55 in 10.0 mi NNW 16.1 mph 32.2 mph N/A   Mostly Cloudy
6:31 PM 53.6 °F - 42.8 °F 67% 30.56 in 10.0 mi NNW 15.0 mph 26.5 mph N/A Thunderstorm Overcast
6:46 PM 51.8 °F - 42.8 °F 71% 30.58 in 10.0 mi NNW 15.0 mph 28.8 mph N/A   Overcast
7:08 PM 53.6 °F - 41.0 °F 62% 30.58 in 10.0 mi NNW 8.1 mph 18.4 mph N/A   Overcast
7:30 PM 53.6 °F - 41.0 °F 62% 30.60 in 10.0 mi Calm Calm - N/A   Overcast
7:53 PM 53.6 °F - 41.0 °F 62% 30.60 in 10.0 mi SSE 4.6 mph - N/A   Mostly Cloudy
8:13 PM 53.6 °F - 41.0 °F 62% 30.59 in 10.0 mi ESE 3.5 mph - N/A   Overcast
8:29 PM 53.6 °F - 41.0 °F 62% 30.59 in 10.0 mi SSE 3.5 mph - N/A   Overcast
8:52 PM 53.6 °F - 41.0 °F 62% 30.59 in 10.0 mi Calm Calm - N/A   Overcast
9:12 PM 53.6 °F - 41.0 °F 62% 30.58 in 10.0 mi Calm Calm - N/A   Overcast
9:31 PM 53.6 °F - 39.2 °F 58% 30.59 in 10.0 mi Calm Calm - N/A   Mostly Cloudy
9:50 PM 53.6 °F - 37.4 °F 54% 30.60 in 10.0 mi Calm Calm - N/A   Scattered Clouds
10:10 PM 53.6 °F - 39.2 °F 58% 30.61 in 10.0 mi SW 6.9 mph - N/A   Clear
10:29 PM 53.6 °F - 37.4 °F 54% 30.61 in 10.0 mi SSW 3.5 mph - N/A Thunderstorm Clear
10:53 PM 53.6 °F - 39.2 °F 58% 30.61 in 10.0 mi SW 3.5 mph - N/A   Clear
11:12 PM 51.8 °F - 39.2 °F 62% 30.61 in 10.0 mi SW 4.6 mph - N/A   Clear
11:30 PM 53.6 °F - 39.2 °F 58% 30.60 in 10.0 mi SW 10.4 mph 18.4 mph N/A   Clear
11:52 PM 53.6 °F - 41.0 °F 62% 30.60 in 10.0 mi SW 13.8 mph 19.6 mph N/A   Mostly Cloudy